BWA527 SYCJ-TTPP

Flight info

Callsign BWA527
Flight time 0h 57m
Altitude 32000
Route TIM DCT VOKAV DCT IMIRA DCT LEXOR DCT TALUS
Aircraft B38M/M-SDE2E3FGHIRWXY/LB1

Departure

Time 2026-04-27 12:30
Airport Cheddi Jagan International Airport (SYCJ)

Arrival

Time 2026-04-27 13:28
Airport Piarco International Airport (TTPP)
Time Latitude Longitude Altitude Speed Heading
2026-04-27 11:58 6.50354 -58.25213 103 ft 0 kts 315°
2026-04-27 12:19 6.50340 -58.25198 103 ft 4 kts 297°
2026-04-27 12:19 6.50334 -58.25174 103 ft 4 kts 257°
2026-04-27 12:20 6.50343 -58.25156 103 ft 1 kts 225°
2026-04-27 12:20 6.50346 -58.25154 103 ft 0 kts 225°
2026-04-27 12:24 6.50345 -58.25154 103 ft 1 kts 225°
2026-04-27 12:24 6.50339 -58.25160 103 ft 3 kts 225°
2026-04-27 12:24 6.50311 -58.25189 103 ft 8 kts 225°
2026-04-27 12:25 6.50261 -58.25239 103 ft 12 kts 225°
2026-04-27 12:25 6.50185 -58.25256 103 ft 12 kts 197°
2026-04-27 12:25 6.50118 -58.25302 103 ft 12 kts 218°
2026-04-27 12:25 6.50047 -58.25286 104 ft 11 kts 153°
2026-04-27 12:26 6.49975 -58.25301 104 ft 11 kts 217°
2026-04-27 12:26 6.49918 -58.25351 104 ft 11 kts 223°
2026-04-27 12:26 6.49863 -58.25407 105 ft 12 kts 226°
2026-04-27 12:26 6.49793 -58.25477 106 ft 17 kts 224°
2026-04-27 12:27 6.49693 -58.25575 105 ft 24 kts 224°
2026-04-27 12:27 6.49559 -58.25706 103 ft 30 kts 224°
2026-04-27 12:27 6.49401 -58.25866 103 ft 35 kts 225°
2026-04-27 12:27 6.49219 -58.26047 103 ft 39 kts 224°
2026-04-27 12:28 6.49018 -58.26241 105 ft 41 kts 224°
2026-04-27 12:28 6.48807 -58.26402 104 ft 35 kts 197°
2026-04-27 12:28 6.48758 -58.26514 105 ft 10 kts 343°
2026-04-27 12:28 6.48799 -58.26484 106 ft 8 kts 75°
2026-04-27 12:29 6.48824 -58.26443 105 ft 0 kts 43°
2026-04-27 12:29 6.48825 -58.26442 106 ft 1 kts 43°
2026-04-27 12:29 6.48885 -58.26385 105 ft 42 kts 44°
2026-04-27 12:30 6.49317 -58.25954 103 ft 130 kts 45°
2026-04-27 12:30 6.50112 -58.25150 371 ft 181 kts 45°
2026-04-27 12:30 6.50964 -58.24295 1796 ft 157 kts 44°
2026-04-27 12:30 6.51708 -58.23602 3116 ft 143 kts 44°
2026-04-27 12:31 6.52570 -58.22923 3499 ft 179 kts 29°
2026-04-27 12:31 6.53880 -58.22643 4054 ft 201 kts
2026-04-27 12:31 6.55245 -58.23007 4902 ft 208 kts 339°
2026-04-27 12:31 6.56491 -58.23839 5525 ft 223 kts 324°
2026-04-27 12:32 6.57746 -58.24793 6155 ft 233 kts 328°
2026-04-27 12:32 6.59160 -58.25777 6492 ft 261 kts 328°
2026-04-27 12:32 6.60705 -58.26903 6893 ft 285 kts 326°
2026-04-27 12:32 6.62323 -58.28113 7639 ft 294 kts 326°
2026-04-27 12:33 6.63976 -58.29346 8496 ft 298 kts 326°
2026-04-27 12:33 6.65656 -58.30595 9347 ft 302 kts 326°
2026-04-27 12:33 6.67360 -58.31859 10167 ft 307 kts 326°
2026-04-27 12:33 6.69125 -58.33164 10561 ft 328 kts 325°
2026-04-27 12:34 6.70811 -58.34823 10978 ft 346 kts 315°
2026-04-27 12:34 6.72638 -58.36414 11688 ft 349 kts 326°
2026-04-27 12:34 6.74645 -58.37810 12467 ft 352 kts 328°
2026-04-27 12:34 6.76707 -58.39159 13235 ft 355 kts 329°
2026-04-27 12:35 6.78790 -58.40521 13973 ft 359 kts 328°
2026-04-27 12:35 6.80881 -58.41916 14691 ft 362 kts 327°
2026-04-27 12:35 6.82986 -58.43345 15379 ft 367 kts 327°
2026-04-27 12:35 6.85102 -58.44802 16103 ft 370 kts 326°
2026-04-27 12:36 6.87224 -58.46278 16814 ft 372 kts 326°
2026-04-27 12:36 6.88634 -58.47265 17226 ft 375 kts 326°
2026-04-27 12:36 6.90786 -58.48777 17858 ft 379 kts 326°
2026-04-27 12:36 6.92950 -58.50303 18503 ft 382 kts 326°
2026-04-27 12:37 6.95131 -58.51845 19085 ft 386 kts 326°
2026-04-27 12:37 6.97351 -58.53415 19630 ft 391 kts 326°
2026-04-27 12:37 6.99587 -58.54997 20180 ft 395 kts 326°
2026-04-27 12:37 7.01847 -58.56596 20699 ft 400 kts 326°
2026-04-27 12:38 7.04135 -58.58215 21210 ft 404 kts 326°
2026-04-27 12:38 7.06458 -58.59859 21719 ft 408 kts 326°
2026-04-27 12:38 7.08803 -58.61518 22216 ft 411 kts 326°
2026-04-27 12:38 7.11159 -58.63186 22685 ft 416 kts 326°
2026-04-27 12:39 7.13531 -58.64867 23131 ft 419 kts 326°
2026-04-27 12:39 7.15932 -58.66567 23579 ft 422 kts 326°
2026-04-27 12:39 7.18348 -58.68278 24000 ft 426 kts 326°
2026-04-27 12:39 7.20781 -58.70001 24399 ft 430 kts 326°
2026-04-27 12:40 7.23240 -58.71742 24821 ft 432 kts 326°
2026-04-27 12:40 7.25709 -58.73490 25244 ft 435 kts 326°
2026-04-27 12:40 7.28189 -58.75247 25649 ft 437 kts 326°
2026-04-27 12:40 7.30651 -58.76992 26032 ft 440 kts 326°
2026-04-27 12:41 7.33163 -58.78773 26443 ft 442 kts 326°
2026-04-27 12:41 7.35682 -58.80560 26842 ft 444 kts 326°
2026-04-27 12:41 7.38225 -58.82363 27205 ft 447 kts 326°
2026-04-27 12:41 7.40776 -58.84171 27562 ft 450 kts 326°
2026-04-27 12:42 7.43344 -58.85993 27943 ft 451 kts 326°
2026-04-27 12:42 7.45910 -58.87813 28424 ft 450 kts 326°
2026-04-27 12:42 7.48467 -58.89627 28969 ft 448 kts 326°
2026-04-27 12:42 7.51009 -58.91431 29448 ft 446 kts 326°
2026-04-27 12:43 7.53543 -58.93229 29905 ft 446 kts 326°
2026-04-27 12:43 7.56078 -58.95028 30354 ft 445 kts 326°
2026-04-27 12:43 7.58614 -58.96828 30828 ft 444 kts 326°
2026-04-27 12:43 7.61127 -58.98612 31343 ft 441 kts 326°
2026-04-27 12:44 7.63631 -59.00390 31857 ft 439 kts 326°
2026-04-27 12:44 7.66133 -59.02167 32008 ft 442 kts 326°
2026-04-27 12:44 7.68639 -59.03947 32010 ft 439 kts 326°
2026-04-27 12:45 7.73617 -59.07483 32022 ft 437 kts 326°
2026-04-27 12:45 7.78598 -59.11022 32014 ft 439 kts 326°
2026-04-27 12:46 7.83590 -59.14569 32013 ft 439 kts 326°
2026-04-27 12:46 7.88584 -59.18121 32010 ft 439 kts 326°
2026-04-27 12:47 7.93576 -59.21670 32008 ft 438 kts 326°
2026-04-27 12:47 7.98559 -59.25216 32010 ft 438 kts 326°
2026-04-27 12:48 8.03501 -59.28733 32012 ft 437 kts 325°
2026-04-27 12:48 8.08497 -59.32289 32006 ft 436 kts 325°
2026-04-27 12:49 8.13451 -59.35816 32010 ft 435 kts 325°
2026-04-27 12:49 8.18402 -59.39344 32009 ft 436 kts 325°
2026-04-27 12:50 8.23359 -59.42876 32010 ft 436 kts 325°
2026-04-27 12:50 8.28316 -59.46408 32010 ft 436 kts 325°
2026-04-27 12:51 8.33277 -59.49944 32010 ft 436 kts 325°
2026-04-27 12:51 8.38237 -59.53483 32018 ft 437 kts 325°
2026-04-27 12:52 8.43202 -59.57026 32018 ft 437 kts 325°
2026-04-27 12:52 8.48162 -59.60566 32018 ft 437 kts 325°
2026-04-27 12:53 8.55607 -59.65881 32018 ft 437 kts 325°
2026-04-27 12:53 8.60572 -59.69426 32019 ft 437 kts 325°
2026-04-27 12:54 8.65540 -59.72976 32018 ft 437 kts 325°
2026-04-27 12:54 8.70500 -59.76521 32020 ft 437 kts 325°
2026-04-27 12:55 8.75462 -59.80069 32018 ft 436 kts 325°
2026-04-27 12:55 8.80407 -59.83607 32022 ft 435 kts 325°
2026-04-27 12:56 8.85343 -59.87139 32028 ft 435 kts 324°
2026-04-27 12:56 8.90281 -59.90672 32028 ft 435 kts 324°
2026-04-27 12:57 8.94812 -59.94709 32036 ft 434 kts 314°
2026-04-27 12:57 8.99030 -59.99031 32028 ft 435 kts 314°
2026-04-27 12:58 9.03285 -60.03387 32027 ft 435 kts 314°
2026-04-27 12:58 9.07560 -60.07732 32028 ft 435 kts 314°
2026-04-27 12:59 9.11838 -60.12066 32026 ft 435 kts 314°
2026-04-27 12:59 9.16122 -60.16402 32030 ft 435 kts 314°
2026-04-27 13:00 9.20401 -60.20736 32026 ft 435 kts 314°
2026-04-27 13:00 9.24676 -60.25068 32031 ft 435 kts 314°
2026-04-27 13:01 9.28952 -60.29402 32028 ft 435 kts 314°
2026-04-27 13:01 9.33233 -60.33742 32030 ft 435 kts 314°
2026-04-27 13:02 9.37523 -60.38096 31433 ft 439 kts 314°
2026-04-27 13:02 9.39682 -60.40288 30826 ft 440 kts 314°
2026-04-27 13:02 9.41849 -60.42488 30193 ft 442 kts 314°
2026-04-27 13:03 9.44022 -60.44694 29635 ft 442 kts 314°
2026-04-27 13:03 9.46195 -60.46899 29111 ft 441 kts 314°
2026-04-27 13:03 9.48351 -60.49088 28581 ft 439 kts 314°
2026-04-27 13:03 9.50504 -60.51275 28046 ft 438 kts 314°
2026-04-27 13:04 9.52655 -60.53461 27516 ft 436 kts 314°
2026-04-27 13:04 9.54790 -60.55630 26986 ft 434 kts 314°
2026-04-27 13:04 9.56923 -60.57798 26454 ft 433 kts 314°
2026-04-27 13:04 9.59045 -60.59955 25923 ft 431 kts 314°
2026-04-27 13:05 9.61158 -60.62102 25391 ft 429 kts 314°
2026-04-27 13:05 9.63266 -60.64245 24862 ft 427 kts 315°
2026-04-27 13:05 9.65358 -60.66373 24334 ft 426 kts 315°
2026-04-27 13:05 9.67444 -60.68496 23807 ft 424 kts 315°
2026-04-27 13:06 9.69524 -60.70612 23281 ft 422 kts 315°
2026-04-27 13:06 9.71590 -60.72715 22761 ft 420 kts 315°
2026-04-27 13:06 9.73644 -60.74805 22231 ft 418 kts 315°
2026-04-27 13:06 9.75686 -60.76884 21710 ft 415 kts 315°
2026-04-27 13:07 9.77713 -60.78948 21192 ft 412 kts 314°
2026-04-27 13:07 9.79729 -60.81002 20680 ft 410 kts 314°
2026-04-27 13:07 9.81737 -60.83046 20166 ft 407 kts 314°
2026-04-27 13:07 9.83729 -60.85075 19655 ft 404 kts 314°
2026-04-27 13:08 9.85706 -60.87090 19147 ft 402 kts 314°
2026-04-27 13:08 9.87644 -60.89066 18644 ft 399 kts 314°
2026-04-27 13:08 9.89594 -60.91052 18141 ft 396 kts 314°
2026-04-27 13:08 9.91529 -60.93025 17631 ft 393 kts 314°
2026-04-27 13:09 9.93450 -60.94983 17137 ft 390 kts 314°
2026-04-27 13:09 9.95357 -60.96927 16643 ft 387 kts 314°
2026-04-27 13:09 9.97249 -60.98858 16143 ft 385 kts 314°
2026-04-27 13:09 9.99132 -61.00779 15654 ft 382 kts 314°
2026-04-27 13:10 10.01001 -61.02687 15163 ft 380 kts 315°
2026-04-27 13:10 10.02859 -61.04583 14676 ft 377 kts 315°
2026-04-27 13:10 10.04700 -61.06461 14198 ft 375 kts 315°
2026-04-27 13:10 10.06535 -61.08335 13706 ft 373 kts 315°
2026-04-27 13:11 10.08355 -61.10193 13222 ft 370 kts 315°
2026-04-27 13:11 10.10160 -61.12037 12740 ft 365 kts 315°
2026-04-27 13:11 10.11934 -61.13852 12250 ft 358 kts 315°
2026-04-27 13:11 10.13673 -61.15629 11799 ft 351 kts 315°
2026-04-27 13:12 10.15356 -61.17347 11649 ft 335 kts 315°
2026-04-27 13:12 10.16434 -61.18449 11409 ft 330 kts 315°
2026-04-27 13:12 10.18066 -61.20118 10890 ft 328 kts 315°
2026-04-27 13:12 10.19655 -61.21741 10395 ft 327 kts 316°
2026-04-27 13:13 10.21269 -61.23392 10146 ft 316 kts 316°
2026-04-27 13:13 10.22807 -61.24964 9867 ft 309 kts 316°
2026-04-27 13:13 10.24313 -61.26505 9483 ft 306 kts 316°
2026-04-27 13:13 10.25802 -61.28027 9156 ft 301 kts 316°
2026-04-27 13:14 10.27261 -61.29520 8826 ft 296 kts 316°
2026-04-27 13:14 10.28743 -61.31035 8495 ft 292 kts 316°
2026-04-27 13:14 10.30164 -61.32489 8171 ft 289 kts 316°
2026-04-27 13:14 10.31572 -61.33930 7838 ft 285 kts 316°
2026-04-27 13:15 10.32932 -61.35322 7531 ft 282 kts 316°
2026-04-27 13:15 10.34310 -61.36734 7216 ft 280 kts 316°
2026-04-27 13:15 10.35670 -61.38126 6890 ft 277 kts 316°
2026-04-27 13:15 10.37021 -61.39508 6571 ft 274 kts 316°
2026-04-27 13:16 10.38349 -61.40869 6257 ft 269 kts 316°
2026-04-27 13:16 10.39659 -61.42213 5950 ft 266 kts 316°
2026-04-27 13:16 10.40959 -61.43545 5659 ft 266 kts 317°
2026-04-27 13:16 10.42270 -61.44880 5370 ft 275 kts 316°
2026-04-27 13:17 10.43647 -61.46296 5057 ft 280 kts 316°
2026-04-27 13:17 10.45006 -61.47690 4741 ft 281 kts 316°
2026-04-27 13:17 10.46389 -61.49109 4411 ft 283 kts 316°
2026-04-27 13:17 10.47759 -61.50526 4134 ft 275 kts 317°
2026-04-27 13:18 10.49159 -61.51727 4071 ft 252 kts 336°
2026-04-27 13:18 10.50736 -61.52226 4086 ft 225 kts 358°
2026-04-27 13:18 10.52236 -61.52299 3977 ft 210 kts
2026-04-27 13:18 10.53700 -61.52284 3611 ft 211 kts
2026-04-27 13:19 10.55162 -61.52273 3230 ft 209 kts
2026-04-27 13:19 10.56608 -61.52269 2823 ft 206 kts
2026-04-27 13:19 10.58007 -61.52194 2521 ft 194 kts
2026-04-27 13:19 10.59274 -61.52512 2470 ft 188 kts 324°
2026-04-27 13:20 10.59898 -61.53673 2514 ft 197 kts 274°
2026-04-27 13:20 10.59883 -61.55086 2499 ft 200 kts 267°
2026-04-27 13:20 10.59860 -61.56492 2482 ft 194 kts 269°
2026-04-27 13:20 10.59566 -61.57759 2480 ft 179 kts 232°
2026-04-27 13:21 10.58631 -61.58488 2498 ft 168 kts 187°
2026-04-27 13:21 10.57506 -61.58449 2493 ft 163 kts 151°
2026-04-27 13:21 10.56745 -61.57674 2483 ft 158 kts 103°
2026-04-27 13:21 10.56791 -61.56593 2494 ft 156 kts 76°
2026-04-27 13:22 10.57293 -61.55623 2502 ft 155 kts 62°
2026-04-27 13:22 10.57865 -61.54667 2501 ft 157 kts 62°
2026-04-27 13:22 10.58428 -61.53717 2493 ft 157 kts 63°
2026-04-27 13:22 10.58846 -61.52705 2503 ft 155 kts 76°
2026-04-27 13:23 10.59134 -61.51647 2489 ft 155 kts 76°
2026-04-27 13:23 10.59377 -61.50582 2488 ft 155 kts 86°
2026-04-27 13:23 10.59449 -61.49493 2493 ft 155 kts 89°
2026-04-27 13:23 10.59477 -61.48431 2488 ft 148 kts 90°
2026-04-27 13:24 10.59498 -61.47412 2418 ft 144 kts 90°
2026-04-27 13:24 10.59506 -61.46414 2226 ft 135 kts 91°
2026-04-27 13:24 10.59522 -61.45482 2034 ft 130 kts 90°
2026-04-27 13:24 10.59536 -61.44586 1879 ft 124 kts 91°
2026-04-27 13:25 10.59534 -61.43684 1787 ft 130 kts 92°
2026-04-27 13:25 10.59537 -61.42747 1804 ft 136 kts 92°
2026-04-27 13:25 10.59557 -61.41798 1607 ft 131 kts 91°
2026-04-27 13:25 10.59562 -61.40877 1363 ft 127 kts 94°
2026-04-27 13:26 10.59546 -61.39988 1118 ft 128 kts 93°
2026-04-27 13:26 10.59549 -61.39068 891 ft 131 kts 94°
2026-04-27 13:26 10.59542 -61.38153 699 ft 131 kts 94°
2026-04-27 13:26 10.59539 -61.37231 487 ft 130 kts 93°
2026-04-27 13:27 10.59542 -61.36301 294 ft 133 kts 92°
2026-04-27 13:27 10.59535 -61.35364 116 ft 131 kts 91°
2026-04-27 13:27 10.59534 -61.34467 51 ft 115 kts 89°
2026-04-27 13:27 10.59539 -61.33800 51 ft 64 kts 89°
2026-04-27 13:28 10.59572 -61.33530 49 ft 26 kts 57°
2026-04-27 13:28 10.59674 -61.33453 51 ft 13 kts 346°
2026-04-27 13:28 10.59705 -61.33528 48 ft 11 kts 274°
2026-04-27 13:28 10.59707 -61.33604 51 ft 10 kts 271°
2026-04-27 13:29 10.59708 -61.33675 50 ft 9 kts 271°
2026-04-27 13:29 10.59732 -61.33728 50 ft 9 kts 333°
2026-04-27 13:29 10.59792 -61.33735 50 ft 9 kts 357°
2026-04-27 13:29 10.59834 -61.33768 50 ft 8 kts 279°
2026-04-27 13:30 10.59835 -61.33827 50 ft 8 kts 270°
2026-04-27 13:30 10.59835 -61.33884 50 ft 8 kts 270°
2026-04-27 13:30 10.59835 -61.33939 49 ft 8 kts 270°
2026-04-27 13:30 10.59837 -61.33993 48 ft 7 kts 282°
2026-04-27 13:31 10.59880 -61.34009 50 ft 7 kts
2026-04-27 13:31 10.59930 -61.34002 50 ft 7 kts
2026-04-27 13:31 10.59951 -61.34000 50 ft 2 kts
2026-04-27 13:31 10.59960 -61.33998 50 ft 0 kts